Skip Page Navigation
NASA JPL Caltech
NASA Logo - Jet Propulsion Laboratory + View the NASA Portal
+ Near-Earth Object (NEO) Program
Search JPL
JPL Home Earth Solar System Stars & Galaxies Technology
JPL Solar System Dynamics
BODIES ORBITS EPHEMERIDES TOOLS PHYSICAL DATA DISCOVERY FAQ SITE MAP
JPL Small-Body Database Browser
Search: [ help ]  
34738 Hulbert (2001 QV71)
Classification: Main-belt Asteroid          SPK-ID: 2034738
Ephemeris | Orbit Diagram | Orbital Elements | Physical Parameters | Discovery Circumstances ]

[ show orbit diagram ]
Orbital Elements at Epoch 2456400.5 (2013-Apr-18.0) TDB
Reference: JPL 1 (heliocentric ecliptic J2000)
 Element Value Uncertainty (1-sigma)   Units 
e .1620587616178739 7.7257e-08  
a 2.168389841902344 1.8774e-08 AU
q 1.816983269418872 1.6183e-07 AU
i 1.231320106635855 5.9104e-06 deg
node 249.8658804026822 0.00037536 deg
peri 133.5784929698799 0.00037708 deg
M 212.6954602824333 3.5176e-05 deg
tp 2456877.719414598245
(2014-Aug-08.21941460)
0.00011865 JED
period 1166.284417199672
3.19
1.5147e-05
4.147e-08
d
yr
n .3086725627908022 4.0087e-09 deg/d
Q 2.519796414385815 2.1816e-08 AU
  Orbit Determination Parameters
   # obs. used (total)      592  
   data-arc span      7389 days (20.23 yr)  
   first obs. used      1993-01-28  
   last obs. used      2013-04-22  
   planetary ephem.      DE405  
   SB-pert. ephem.      SB405-CPV-2  
   condition code      0  
   fit RMS      .63075  
   data source      ORB  
   producer      Otto Matic  
   solution date      2013-Apr-29 15:16:16  

Additional Information
 Earth MOID = .819973 AU 
 T_jup = 3.673 
[ show covariance matrix ]

Ephemeris | Orbit Diagram | Orbital Elements | Physical Parameters | Discovery Circumstances ]

Physical Parameter Table
Parameter Symbol Value Units Sigma Reference Notes
absolute magnitude H 15.7 mag n/a PDS3 (MPO 21854)  

34738 Hulbert           Discovered 2001 Aug. 20 by C. Wolfe at Terre Haute.
Samuel F. Hulbert (b. 1936) is president of Rose-Hulman Institute of Technology. His visionary leadership led to the building of the Oakley Observatory, where this minor planet was discovered. The name was suggested by R. Ditteon.
NOTE: some special characters may not display properly (any characters within {} are an attempt to place the proper accent above a character)
Reference: 20040107/MPCPages.arcLast Updated: 2004-01-07

Alternate Designations
 2001 QV71 = 1998 XK64 = 2000 GA58 = 2000 GM185 
Ephemeris | Orbit Diagram | Orbital Elements | Physical Parameters | Discovery Circumstances ]
ABOUT SSD CREDITS/AWARDS PRIVACY/COPYRIGHT GLOSSARY LINKS
FirstGov 2013-May-21 04:09 UT
(server date/time)  
NASA Home Page
Site Manager:   Donald K. Yeomans
Webmaster  Alan B. Chamberlin